Location: Lynch Observatory
(39.9540°N, 75.1861°W)
Time: 19:26:17
(UTC-04:00)

Hubble Space Telescope - Pass Details

Date: 12 August 2022
Orbit: 532 x 535 km, 28.5° (Epoch: 23 September)

Event Time Altitude Azimuth Distance (km) Brightness Sun altitude
Rises 21:06:03 0° 247° (WSW) 2,666 4.9 -12.0°
Reaches altitude 10° 21:09:16 10° 221° (SW) 1,776 3.5 -12.6°
Maximum altitude 21:11:20 14° 190° (S) 1,560 2.9 -12.9°
Enters shadow 21:12:49 12° 168° (SSE) 1,672 2.9 -13.1°
